sat.trackr.live / text

‹ back to catalog

STARLINK-32805

NORAD 62740 · 2025-014F

PAYLOAD ACTIVE UNKNOWN

§ Identity

Operator
Country
US
Launch date
2025-01-21
Launch site
AFETR
Launch vehicle
Mass (kg)
RCS (m²)

Purposes: comms

External: N2YO · Heavens-Above · Gunter

§ Orbital elements

Epoch: 2026-09-21T07:55:56.344800Z

Period
94.27 min
Inclination
43.0020°
Eccentricity
0.0001105
Mean motion
15.27601581 rev/d
Perigee alt
482.2 km
Apogee alt
483.7 km
Semi-major
6,861.1 km
B*
6.8967e-4
RAAN
129.9017°
Arg perigee
279.4823°
Mean anomaly
80.5903°
Rev number
9,317

§ Raw data

STARLINK-328051 62740U 25014F   26264.33051325  .00018777  00000+0  68967-3 0  99912 62740  43.0020 129.9017 0001105 279.4823  80.5903 15.27601581 93172

JSON: /api/v1/satellites/62740 · /tle

For live sub-satellite position, see the globe view (requires WebGL).

§ Visibility from observer

Set your observer location to see the next 7 days of passes ≥ 10°. The values pass through the URL so the page stays shareable.

No JS? Fill the form by hand. The geolocation button needs JavaScript.